Frankfort, MI

1:12 AM EST on December 11, 2019 (GMT -0500)
Frankfort

Weather History for KFKS - October, 2019

Change the Weather History Date:

Saturday, October 12, 2019

  Actual Average (KMBL) Record (KMBL)
Temperature  
Mean Temperature 48 °F -  
Max Temperature 52 °F 60 °F 78 °F (1973)
Min Temperature 43 °F 42 °F 30 °F (1957)
Degree Days  
Heating Degree Days 18    
Moisture  
Dew Point 30 °F    
Average Humidity 53    
Maximum Humidity 76    
Minimum Humidity 41    
Precipitation  
Precipitation 0.00 in - - ()
Sea Level Pressure  
Sea Level Pressure 29.83 in    
Wind  
Wind Speed 13 mph (SW)    
Max Wind Speed 22 mph    
Max Gust Speed 33 mph    
Visibility 10 miles    
Events Rain    
Averages and records for this station are not official NWS values.
T = Trace of Precipitation, MM = Missing Value Source: NWS Daily Summary

Daily Weather History Graph

Daily Weather History Graph

Search for Another Location

Airport or City:

Astronomy

Oct. 12, 2019 Rise Set
Actual Time 7:56 AM EDT 7:05 PM EDT
Civil Twilight 7:26 AM EDT 7:35 PM EDT
Nautical Twilight 6:52 AM EDT 8:08 PM EDT
Astronomical Twilight 6:19 AM EDT 8:42 PM EDT
Moon 7:06 PM EDT (10/12) 6:26 AM EDT (10/12)
Length of Visible Light 12h 08m
Length of Day
11h 09m
Waxing Gibbous, 99% of the Moon is Illuminated
Oct 12
Waxing Gibbous
Oct 13
Full
Oct 21
Last Quarter
Oct 27
New
Nov 4
First Quarter

Hourly Weather History & Observations

Time (EDT) Temp. Windchill Dew Point Humidity Pressure Visibility Wind Dir Wind Speed Gust Speed Precip Events Conditions
12:17 AM 46.4 °F 41.1 °F 31.5 °F 56% 29.88 in 10.0 mi WSW 11.5 mph 25.3 mph N/A   Overcast
12:35 AM 46.0 °F 41.0 °F 29.5 °F 52% 29.88 in 10.0 mi WSW 10.4 mph 20.7 mph N/A   Overcast
12:36 AM 46.0 °F 40.2 °F 29.3 °F 52% 29.88 in 10.0 mi WSW 12.7 mph 20.7 mph N/A   Overcast
12:55 AM 45.9 °F 39.7 °F 30.0 °F 54% 29.88 in 10.0 mi SW 13.8 mph 20.7 mph N/A   Overcast
1:15 AM 45.7 °F 39.8 °F 28.4 °F 51% 29.87 in 10.0 mi WSW 12.7 mph 21.9 mph N/A   Overcast
1:38 AM 45.7 °F 39.1 °F 29.8 °F 54% 29.87 in 10.0 mi WSW 15.0 mph 20.7 mph N/A   Overcast
1:56 AM 45.5 °F 39.6 °F 30.2 °F 55% 29.86 in 10.0 mi WSW 12.7 mph 26.5 mph N/A   Overcast
2:15 AM 45.5 °F 38.6 °F 28.2 °F 51% 29.87 in 10.0 mi WSW 16.1 mph 29.9 mph N/A   Overcast
2:16 AM 45.5 °F 37.6 °F 28.2 °F 51% 29.87 in 10.0 mi WSW 20.7 mph 29.9 mph N/A   Overcast
2:35 AM 45.0 °F 39.7 °F 26.6 °F 49% 29.87 in 10.0 mi SW 10.4 mph 20.7 mph N/A   Overcast
2:36 AM 45.0 °F 38.9 °F 26.6 °F 49% 29.87 in 10.0 mi SW 12.7 mph 24.2 mph N/A   Overcast
2:59 AM 45.1 °F 40.3 °F 28.4 °F 52% 29.87 in 10.0 mi WSW 9.2 mph 16.1 mph N/A   Overcast
3:17 AM 45.3 °F 39.3 °F 27.0 °F 49% 29.87 in 10.0 mi WSW 12.7 mph 24.2 mph N/A   Overcast
3:35 AM 45.5 °F 39.2 °F 27.0 °F 48% 29.87 in 10.0 mi WSW 13.8 mph 25.3 mph N/A   Overcast
3:55 AM 45.5 °F 39.2 °F 26.8 °F 48% 29.86 in 10.0 mi West 13.8 mph 20.7 mph N/A   Overcast
3:56 AM 45.5 °F 39.9 °F 26.6 °F 48% 29.86 in 10.0 mi West 11.5 mph 17.3 mph N/A   Overcast
4:15 AM 45.1 °F 39.9 °F 26.2 °F 48% 29.86 in 10.0 mi WSW 10.4 mph 24.2 mph N/A   Overcast
4:20 AM 45.5 °F 39.2 °F 27.3 °F 49% 29.85 in 10.0 mi WSW 13.8 mph 23.0 mph N/A   Overcast
4:37 AM 45.3 °F 39.3 °F 27.9 °F 51% 29.85 in 10.0 mi SW 12.7 mph 23.0 mph N/A   Overcast
4:56 AM 45.0 °F 39.7 °F 27.9 °F 51% 29.85 in 10.0 mi SW 10.4 mph 23.0 mph N/A   Overcast
5:15 AM 44.8 °F 40.4 °F 26.8 °F 49% 29.85 in 10.0 mi WSW 8.1 mph 18.4 mph N/A   Overcast
5:16 AM 44.8 °F 40.4 °F 27.0 °F 50% 29.85 in 10.0 mi WSW 8.1 mph 18.4 mph N/A   Overcast
5:35 AM 44.8 °F 38.3 °F 27.1 °F 50% 29.85 in 10.0 mi WSW 13.8 mph 24.2 mph N/A   Overcast
5:58 AM 45.0 °F 38.5 °F 28.2 °F 52% 29.85 in 10.0 mi SW 13.8 mph 21.9 mph N/A   Overcast
6:17 AM 44.8 °F 38.0 °F 28.4 °F 53% 29.85 in 10.0 mi West 15.0 mph 23.0 mph N/A   Overcast
6:35 AM 44.8 °F 39.0 °F 28.4 °F 53% 29.85 in 10.0 mi SW 11.5 mph 24.2 mph N/A   Overcast
6:55 AM 44.8 °F 39.0 °F 28.0 °F 52% 29.85 in 10.0 mi SSW 11.5 mph 21.9 mph N/A   Overcast
6:56 AM 44.8 °F 39.4 °F 28.4 °F 53% 29.85 in 10.0 mi SW 10.4 mph 21.9 mph N/A   Overcast
7:15 AM 44.8 °F 39.4 °F 28.8 °F 53% 29.85 in 10.0 mi WSW 10.4 mph 26.5 mph N/A   Overcast
7:20 AM 44.8 °F 39.0 °F 28.8 °F 53% 29.85 in 10.0 mi SSW 11.5 mph 19.6 mph N/A   Overcast
7:38 AM 44.6 °F 38.1 °F 27.9 °F 52% 29.86 in 10.0 mi SW 13.8 mph 21.9 mph N/A   Overcast
7:56 AM 44.6 °F 37.8 °F 28.0 °F 52% 29.85 in 10.0 mi WSW 15.0 mph 21.9 mph N/A   Overcast
8:15 AM 44.6 °F 38.8 °F 28.4 °F 53% 29.86 in 10.0 mi SW 11.5 mph 18.4 mph N/A   Overcast
8:16 AM 44.6 °F 40.2 °F 28.4 °F 53% 29.86 in 10.0 mi SW 8.1 mph 18.4 mph N/A   Overcast
8:35 AM 44.8 °F 38.3 °F 28.2 °F 52% 29.86 in 10.0 mi SW 13.8 mph 20.7 mph N/A   Overcast
8:36 AM 44.8 °F 38.0 °F 28.2 °F 52% 29.86 in 10.0 mi SSW 15.0 mph 20.7 mph N/A   Overcast
8:59 AM 44.6 °F 38.1 °F 28.4 °F 53% 29.87 in 10.0 mi SSW 13.8 mph 19.6 mph N/A   Overcast
9:17 AM 45.0 °F 39.7 °F 28.0 °F 52% 29.86 in 10.0 mi SW 10.4 mph 18.4 mph N/A   Overcast
9:36 AM 45.1 °F 39.1 °F 29.7 °F 55% 29.86 in 10.0 mi SSW 12.7 mph 20.7 mph N/A   Overcast
9:55 AM 45.1 °F 39.5 °F 28.9 °F 53% 29.86 in 10.0 mi SSW 11.5 mph 23.0 mph N/A   Overcast
10:15 AM 45.3 °F 39.7 °F 27.0 °F 49% 29.86 in 10.0 mi SW 11.5 mph 23.0 mph N/A   Overcast
10:20 AM 45.5 °F 38.6 °F 27.0 °F 48% 29.86 in 10.0 mi SW 16.1 mph 24.2 mph N/A   Overcast
10:38 AM 45.5 °F 39.6 °F 28.8 °F 52% 29.85 in 10.0 mi SW 12.7 mph 23.0 mph N/A   Overcast
10:56 AM 45.1 °F 37.9 °F 26.8 °F 49% 29.85 in 10.0 mi SSW 17.3 mph 27.6 mph N/A   Overcast
11:15 AM 45.9 °F 39.7 °F 27.7 °F 49% 29.85 in 10.0 mi SW 13.8 mph 25.3 mph N/A   Overcast
11:35 AM 46.9 °F - 27.1 °F 46% 29.86 in 10.0 mi SW 19.6 mph 29.9 mph N/A   Mostly Cloudy
11:36 AM 46.9 °F - 27.0 °F 46% 29.86 in 10.0 mi SW 17.3 mph 29.9 mph N/A   Mostly Cloudy
11:59 AM 46.4 °F 40.1 °F 27.3 °F 47% 29.86 in 10.0 mi SSW 15.0 mph 31.1 mph N/A   Mostly Cloudy
12:17 PM 45.5 °F 37.8 °F 27.9 °F 50% 29.85 in 10.0 mi SW 19.6 mph 26.5 mph N/A   Mostly Cloudy
12:55 PM 47.7 °F - 29.3 °F 49% 29.85 in 10.0 mi SW 10.4 mph 24.2 mph N/A   Mostly Cloudy
12:56 PM 47.7 °F - 29.3 °F 49% 29.85 in 10.0 mi SSW 15.0 mph 24.2 mph N/A   Mostly Cloudy
1:15 PM 47.3 °F - 28.9 °F 49% 29.85 in 10.0 mi SSW 17.3 mph 25.3 mph N/A   Mostly Cloudy
1:20 PM 47.3 °F - 29.1 °F 49% 29.84 in 10.0 mi SW 11.5 mph 25.3 mph N/A   Mostly Cloudy
1:38 PM 47.7 °F - 28.4 °F 47% 29.83 in 10.0 mi South 12.7 mph 27.6 mph N/A   Mostly Cloudy
1:56 PM 46.9 °F - 27.1 °F 46% 29.82 in 10.0 mi SSW 18.4 mph 29.9 mph N/A   Mostly Cloudy
2:15 PM 47.1 °F - 28.8 °F 49% 29.82 in 10.0 mi SSW 15.0 mph 24.2 mph N/A   Mostly Cloudy
2:35 PM 47.1 °F - 29.7 °F 51% 29.80 in 10.0 mi South 18.4 mph 29.9 mph N/A   Overcast
2:36 PM 47.3 °F - 29.8 °F 51% 29.80 in 10.0 mi South 15.0 mph 29.9 mph N/A   Mostly Cloudy
2:59 PM 47.7 °F - 29.3 °F 49% 29.79 in 10.0 mi SSW 13.8 mph 25.3 mph N/A   Mostly Cloudy
3:17 PM 47.5 °F - 29.3 °F 49% 29.79 in 10.0 mi South 16.1 mph 27.6 mph N/A   Mostly Cloudy
3:35 PM 47.7 °F - 28.9 °F 48% 29.79 in 10.0 mi SSW 17.3 mph 28.8 mph N/A   Mostly Cloudy
3:55 PM 47.8 °F - 30.0 °F 50% 29.80 in 10.0 mi SSW 17.3 mph 29.9 mph N/A   Overcast
3:56 PM 47.8 °F - 29.8 °F 50% 29.79 in 10.0 mi SSW 17.3 mph 29.9 mph N/A   Overcast
4:15 PM 48.0 °F - 29.5 °F 49% 29.79 in 10.0 mi SSW 20.7 mph 32.2 mph N/A   Overcast
4:38 PM 48.4 °F - 29.3 °F 48% 29.78 in 10.0 mi SSW 18.4 mph 28.8 mph N/A   Mostly Cloudy
4:56 PM 48.2 °F - 28.2 °F 46% 29.79 in 10.0 mi SSW 15.0 mph 33.4 mph N/A   Mostly Cloudy
5:15 PM 48.7 °F - 29.3 °F 47% 29.79 in 10.0 mi SSW 17.3 mph 27.6 mph N/A   Mostly Cloudy
5:16 PM 48.7 °F - 29.3 °F 47% 29.79 in 10.0 mi SW 18.4 mph 27.6 mph N/A   Overcast
5:35 PM 48.7 °F - 30.0 °F 48% 29.78 in 10.0 mi SSW 17.3 mph 26.5 mph N/A   Overcast
5:36 PM 48.7 °F - 30.0 °F 48% 29.78 in 10.0 mi SSW 16.1 mph 26.5 mph N/A   Overcast
5:59 PM 49.5 °F - 29.8 °F 47% 29.78 in 10.0 mi South 17.3 mph 25.3 mph N/A   Overcast
6:17 PM 50.0 °F - 29.1 °F 45% 29.77 in 10.0 mi SSW 19.6 mph 29.9 mph N/A   Overcast
6:35 PM 50.4 °F - 27.7 °F 42% 29.77 in 10.0 mi SSW 18.4 mph 27.6 mph N/A   Mostly Cloudy
6:55 PM 51.3 °F - 28.4 °F 41% 29.77 in 10.0 mi SSW 17.3 mph 29.9 mph N/A   Overcast
7:15 PM 51.8 °F - 28.9 °F 41% 29.76 in 10.0 mi SSW 16.1 mph 26.5 mph N/A   Overcast
7:38 PM 52.0 °F - 28.8 °F 41% 29.76 in 10.0 mi South 17.3 mph 26.5 mph N/A   Overcast
7:56 PM 50.2 °F - 34.5 °F 55% 29.78 in 10.0 mi SSW 18.4 mph 31.1 mph N/A Rain Light Rain
8:15 PM 46.8 °F - 37.0 °F 69% 29.77 in 7.0 mi SW 16.1 mph 25.3 mph N/A Rain Light Rain
8:35 PM 47.8 °F - 36.5 °F 65% 29.77 in 10.0 mi WSW 12.7 mph 24.2 mph N/A Rain Rain
8:36 PM 47.8 °F - 36.5 °F 65% 29.77 in 10.0 mi WSW 13.8 mph 24.2 mph N/A Rain Rain
8:59 PM 46.8 °F - 37.2 °F 69% 29.77 in 10.0 mi WSW 12.7 mph 19.6 mph N/A Rain Light Rain
9:17 PM 46.4 °F 41.9 °F 37.6 °F 71% 29.77 in 10.0 mi West 9.2 mph 19.6 mph N/A   Light Drizzle
9:35 PM 45.3 °F 40.1 °F 37.4 °F 74% 29.79 in 10.0 mi West 10.4 mph 20.7 mph N/A Rain Light Rain
9:55 PM 44.6 °F 39.2 °F 37.4 °F 76% 29.79 in 7.0 mi WSW 10.4 mph 21.9 mph N/A Rain Light Rain
10:15 PM 44.6 °F 39.2 °F 37.6 °F 76% 29.79 in 10.0 mi WSW 10.4 mph 17.3 mph N/A   Drizzle
10:38 PM 44.6 °F 39.7 °F 36.9 °F 74% 29.78 in 7.0 mi WSW 9.2 mph 21.9 mph N/A   Drizzle
10:56 PM 43.7 °F 35.0 °F 36.3 °F 75% 29.79 in 5.0 mi WSW 21.9 mph 29.9 mph N/A Rain Light Rain
11:15 PM 43.7 °F 37.3 °F 36.5 °F 76% 29.77 in 7.0 mi WSW 12.7 mph 27.6 mph N/A Rain Light Rain
11:16 PM 43.9 °F 37.9 °F 36.7 °F 76% 29.78 in 7.0 mi WSW 11.5 mph 27.6 mph N/A Rain Light Rain
11:35 PM 44.1 °F 37.4 °F 37.0 °F 76% 29.77 in 5.0 mi SW 13.8 mph 26.5 mph N/A Rain Light Rain
11:59 PM 44.2 °F 37.0 °F 36.7 °F 75% 29.75 in 7.0 mi SW 16.1 mph 26.5 mph N/A   Drizzle